Weather in Nizhnetambovskoye

Russia / Khabarovsk Krai     50°55′15″N   138°11′18″E
temp.,
°C
wind,
m/s
gust,
m/s
humid.,
%
clouds,
%
prec.,
mm/h
press.,
hPa
HPBL,
m
2 march, tue
tue201:00−25sw12840 0.0 102433
04:00−26wsw118514 0.0 102521
07:00−25wsw1198100 0.1 102620
10:00−21sw3692100 0.1 1026595
13:00−18sw358397 0.0 1025804
16:00−17sw468198 0.1 10241031
19:00−21sw229689 0.1 102635
22:00−23ssw229892 0.1 102764
3 march, wed
wed301:00−26wsw129889 0.0 102622
04:00−28wsw119886 0.0 102621
07:00−27wsw129999 0.0 102630
10:00−23sw399599 0.1 1026513
13:00−17sw4109092 0.1 1023738
16:00−13sw5118296 0.2 10201045
19:00−16sw248787 0.0 1019102
22:00−15wsw2119794 0.6 1017607
4 march, thu
thu401:00−14wsw31496100 1.1 1015867
04:00−14wsw21097100 1.3 1014483
07:00−14wsw2297100 0.2 101347
10:00−11wsw3993100 0.4 1013518
13:00−7wsw4990100 0.3 1011779
16:00−5sw4990100 0.5 1010911
19:00−5sw1697100 0.8 1009385
22:00−9ne3597100 3.9 1008160
5 march, fri
fri501:00−13ne4895100 2.8 1008362
04:00−15ne4795100 3.5 1010542
07:00−18ne2696100 0.6 1013516
10:00−17ene1286100 0.8 1016552
13:00−15sw2385100 0.2 1016896
16:00−15wsw4581100 0.3 1017982
19:00−20wsw229277 0.0 101926
22:00−21w019872 0.1 102120
6 march, sat
sat601:00−21wsw1298100 0.2 102241
04:00−25sw2390100 0.2 1023101
07:00−27sw3698100 0.0 1025185
10:00−23sw4793100 0.1 1026736
13:00−20sw5990100 0.1 1024888
16:00−19sw5989100 0.1 1023925
19:00−21sw31096100 0.1 1024554
22:00−24sw229698 0.1 102649